STARLINK-2406, 47821

Orbit data source: Space-Track

STARLINK-2406, 47821 is a payload satellite owned by SpaceX/Seattle (US) in LEO that was launched on Thu, 11 Mar 2021 UTC via an FALCON 9 launch vehicle from the Air Force Eastern Test Range (AFETR). Payload-class satellites include a variety of spacecraft equipped with specific instruments for various scientific and technological missions. These include communications satellites like Starlink; space stations such as the ISS; scientific satellites like the Hubble; Earth observation satellites from companies like Planet Labs, Umbra, and HawkEye 360; GPS; miniature CubeSats for education and research; and military/defense satellites.

Loading next visibility...
Identifier
47821, 2021-018AL
Orbit
LEO
Country
Flag of USUS
Related business
Manufacturer
SpaceX/Seattle
Mission
Operational Commercial Communications
Bus & Motor
STARLINK, Unknown motor
Mass
260 kg wet, ~248 kg dry
Launch date (UTC)
2021-03-11 (5 years ago)
Launch vehicle
FALCON 9
Launch site
Air Force Eastern Test Range (AFETR)
Object type
Payload
Rocket body
Debris
Shape & HBR
Box + 1 Pan, 10.1 m
Radar Cross Section
13.562 m², Large (>1 m²)

Expand to show TLE details & history
Last TLE update: 2 days ago

TLE from 2 days ago
0 STARLINK-2406
1 47821U 21018AL  26171.15928875  .00001082  00000-0  46631-4 0  9991
2 47821  53.1602 126.2064 0001301  93.6557 266.4593 15.31703696292427
Epoch: 2026-06-20T03:49Z
TLE epoch observation values (Epoch: 2026-06-20T03:49:22.547Z)
Latitude
-0.00001°
Longitude
160.48453°
Altitude
471.684 km
Speed
7.631 km/s
True Right ascension
08h 24m 49s
True Declination
0° 00' 00"
Sunlit
Object was in daylight at epoch
Visualization orbit readout
Latitude
Unknown
Longitude
Unknown
Altitude
Unknown
Speed
Unknown
Apparent Right ascension
Unknown
Apparent Declination
Unknown
Sunlit
N/A
Visualization observer readout
Local Sidereal Time
21:57:16
Azimuth
Unknown
Elevation
Unknown
Doppler factor
Unknown
Orbital elements
Apogee altitude
471.877 km
Perigee altitude
470.094 km
Semi-major axis
6,849.123 km
Eccentricity
0.00013
Inclination
53.1602°
RAAN
126.2064°
Arg. of periapsis
93.6557°
True anomaly
266.44442°
Mean anomaly
266.4593°
Eccentric anomaly
266.45186°
Mean motion
3.82905 °/min
Orbital period
94.02 mins
BSTAR
0.000046631
Loading maneuver chart data...
Computing Atmospheric mass density...
Loading historical data...
Loading historical data...
Loading historical data...
Loading historical data...
Loading historical data...
Loading historical data...
Loading historical data...

Documentation

Showing up to 5 results
|